Weather Roundup
Issued by NWS Chicago, IL

Home | Current Version | Previous Version | Graphics & Text | Print | Product List | Glossary On
Versions: 1 2 3 4 5 6 7 8 9 10 11 12 13 14 15 16 17 18 19 20 21 22 23 24 25 26 27 28 29 30 31 32 33 34 35 36 37 38 39 40 41 42 43 44 45 46 47 48 49 50
000
NZUS59 KLOT 050608
HRRLOT

CHICAGO AREA WEATHER ROUNDUP
NATIONAL WEATHER SERVICE CHICAGO/ROMEOVILLE IL
100 AM CDT SAT SEP 05 2015

NOTE: "FAIR" INDICATES FEW OR NO CLOUDS BELOW 12,000 FEET WITH NO
SIGNIFICANT WEATHER AND/OR OBSTRUCTIONS TO VISIBILITY.

* THESE STATIONS ARE NOT UNDER NWS QUALITY CONTROL. THEY ALSO MAY NOT
  REPORT WEATHER SUCH AS PRECIPITATION OR FOG.

ILZ005-006-012>014-019>023-050700-
NORTHEAST ILLINOIS

CITY           SKY/WX    TMP DP  RH WIND       PRES   REMARKS
OHARE          PTCLDY    72  67  84 E3        30.04F
6HR MIN TEMP:  70; 6HR MAX TEMP:  73;

MIDWAY         PTCLDY    75  67  76 E5        30.05S
6HR MIN TEMP:  74; 6HR MAX TEMP:  76;

AURORA         CLEAR     71  66  84 SE3       30.05F
6HR MIN TEMP:  70; 6HR MAX TEMP:  82;

LANSING*       CLEAR     68  67  95 CALM      30.05F FOG
JOLIET*        CLEAR     72  69  90 CALM      30.04S
WAUKEGAN       PTCLDY    66  65  96 CALM      30.06S
6HR MIN TEMP:  65; 6HR MAX TEMP:  69;

DUPAGE AIRPORT PTCLDY    70  65  84 NE3       30.05S
6HR MIN TEMP:  70; 6HR MAX TEMP:  79;

WHEELING       NOT AVBL
KANKAKEE*      CLEAR     68  67  96 CALM      30.05F
MORRIS*        CLEAR     72  67  85 CALM      30.04S
LEWIS AIRPORT* CLEAR     69  66  91 SE3       30.05S
NORTHERLY IS     N/A     70  67  90 NE2         N/A
$$

WIZ051-052-058>065-066-070>072-050700-
SOUTHEAST WISCONSIN

CITY           SKY/WX    TMP DP  RH WIND       PRES   REMARKS
MILWAUKEE      FOG       66  65  96 CALM      30.06S VSB 1/2
6HR MIN TEMP:  65; 6HR MAX TEMP:  68;

KENOSHA*       PTCLDY    68  65  90 S5        30.07S
RACINE*        MOCLDY    68  64  87 SE3       30.08S
BURLINGTON     CLOUDY    65  64  97 CALM      30.07S FOG
WAUKESHA       CLOUDY    63  63 100 SE3       30.08S FOG
WEST BEND      FOG       63  63 100 CALM      30.07S VSB 1/2
$$

INZ001>003-010>013-019-020-050700-
NORTHWEST INDIANA

CITY           SKY/WX    TMP DP  RH WIND       PRES   REMARKS
GARY*          CLEAR     68  66  93 CALM      30.06S FOG
6HR MIN TEMP:  68; 6HR MAX TEMP:  74;

MICHIGAN CITY* NOT AVBL
RENSSELAER*    NOT AVBL
VALPARAISO     PTCLDY    68  66  93 CALM      30.06F FOG
$$

LMZ740>746-050700-
SOUTHERN LAKE MICHIGAN

STATION/POSITION TIME  SKY/WX   TEMP WIND        PRES    VSBY
                                AIR  DIR/SP/G
                 (UTC)          (F)  (DEG/KT/KT) (MB)    (MI)
HARRISON CRIB    0500            71  130/  5/  5   N/A
BURNHAM HARBOR   0600            70   40/  2/  3   N/A
CALUMET HARBOR   0500            71   10/  3/  4   N/A
BURNS HARBOR     0500            72  180/  1/  2 1018.3
MICHIGAN CITY    0500            71   80/  2/  3   N/A
$$

ABBREVIATIONS USED IN REMARKS
   TC - TEMPERATURE IN CELSIUS
  WCI - WIND CHILL INDEX
   HX - HEAT INDEX
  VSB - VISIBILITY
$$



USA.gov is the U.S. government's official web portal to all federal, state and local government web resources and services.